Lapeer, MI

1:12 PM EST on December 16, 2017 (GMT -0500)
Lapeer

Weather History for KD95 - October, 2013

Change the Weather History Date:

Thursday, October 3, 2013

  Actual Average (KFNT) Record (KFNT)
Temperature  
Mean Temperature 62 °F -  
Max Temperature 80 °F 65 °F 89 °F (1953)
Min Temperature 44 °F 45 °F 25 °F (1974)
Degree Days  
Heating Degree Days 3    
Growing Degree Days 12 (Base 50)    
Moisture  
Dew Point 55 °F    
Average Humidity 74    
Maximum Humidity 97    
Minimum Humidity 54    
Precipitation  
Precipitation 0.00 in - - ()
Sea Level Pressure  
Sea Level Pressure 30.01 in    
Wind  
Wind Speed 3 mph (South)    
Max Wind Speed 12 mph    
Max Gust Speed 17 mph    
Visibility 10 miles    
Events      
Averages and records for this station are not official NWS values.
T = Trace of Precipitation, MM = Missing Value Source: NWS Daily Summary

Daily Weather History Graph

Daily Weather History Graph

Search for Another Location

Airport or City:

Trip Planner

Search our weather history database for the weather conditions in past years. The results will help you decide how hot, cold, wet, or windy it might be!

Date:

Astronomy

Oct. 03, 2013 Rise Set
Actual Time 7:32 AM EDT 7:10 PM EDT
Civil Twilight 7:04 AM EDT 7:38 PM EDT
Nautical Twilight 6:31 AM EDT 8:11 PM EDT
Astronomical Twilight 5:58 AM EDT 8:44 PM EDT
Moon 6:03 AM EDT (10/3) 6:18 PM EDT (10/3)
Length of Visible Light 12h 34m
Length of Day
11h 37m
Waning Crescent, 2% of the Moon is Illuminated
Oct 3
Waning Crescent
Oct 4
New
Oct 11
First Quarter
Oct 18
Full
Oct 26
Last Quarter

Hourly Weather History & Observations

Time (EDT) Temp. Heat Index Dew Point Humidity Pressure Visibility Wind Dir Wind Speed Gust Speed Precip Events Conditions
12:13 AM 46.2 °F - 44.4 °F 93% 30.10 in 10.0 mi Calm Calm - N/A   Clear
12:33 AM 44.6 °F - 43.2 °F 95% 30.10 in 10.0 mi Calm Calm - N/A   Clear
12:54 AM 46.0 °F - 45.0 °F 96% 30.08 in 10.0 mi Calm Calm - N/A   Clear
1:13 AM 45.5 °F - 44.1 °F 95% 30.08 in 10.0 mi Calm Calm - N/A   Clear
1:33 AM 45.5 °F - 43.9 °F 94% 30.08 in 10.0 mi Calm Calm - N/A   Clear
1:54 AM 44.6 °F - 43.7 °F 97% 30.08 in 10.0 mi Calm Calm - N/A   Clear
2:13 AM 45.1 °F - 44.1 °F 96% 30.08 in 10.0 mi Calm Calm - N/A   Clear
2:33 AM 45.1 °F - 44.2 °F 97% 30.08 in 10.0 mi Calm Calm - N/A   Clear
2:54 AM 45.0 °F - 43.9 °F 96% 30.08 in 10.0 mi Calm Calm - N/A   Clear
3:13 AM 44.8 °F - 43.5 °F 95% 30.07 in 10.0 mi Calm Calm - N/A   Clear
3:33 AM 45.1 °F - 44.4 °F 97% 30.06 in 10.0 mi Calm Calm - N/A   Clear
3:53 AM 44.6 °F - 43.5 °F 96% 30.07 in 10.0 mi Calm Calm - N/A   Clear
4:13 AM 50.0 °F - 45.9 °F 86% 30.06 in 10.0 mi Calm Calm - N/A   Clear
4:33 AM 50.2 °F - 45.5 °F 84% 30.06 in 10.0 mi Calm Calm - N/A   Clear
4:53 AM 49.3 °F - 45.3 °F 86% 30.05 in 10.0 mi Calm Calm - N/A   Clear
5:13 AM 53.8 °F - 45.9 °F 75% 30.06 in 10.0 mi SE 3.5 mph - N/A   Clear
5:33 AM 54.1 °F - 45.5 °F 73% 30.06 in 10.0 mi Calm Calm - N/A   Scattered Clouds
5:53 AM 54.5 °F - 45.7 °F 72% 30.06 in 10.0 mi Calm Calm - N/A   Mostly Cloudy
6:13 AM 54.5 °F - 45.7 °F 72% 30.05 in 10.0 mi ESE 3.5 mph - N/A   Mostly Cloudy
6:33 AM 54.9 °F - 45.9 °F 72% 30.06 in 10.0 mi SE 3.5 mph - N/A   Overcast
6:53 AM 56.7 °F - 46.4 °F 69% 30.06 in 10.0 mi ESE 4.6 mph - N/A   Overcast
7:13 AM 57.4 °F - 46.8 °F 68% 30.06 in 10.0 mi Calm Calm - N/A   Overcast
7:33 AM 56.7 °F - 46.2 °F 68% 30.06 in 10.0 mi East 4.6 mph - N/A   Overcast
7:53 AM 55.9 °F - 46.4 °F 70% 30.07 in 10.0 mi Calm Calm - N/A   Mostly Cloudy
8:13 AM 55.9 °F - 46.9 °F 72% 30.06 in 10.0 mi ESE 3.5 mph - N/A   Overcast
8:34 AM 55.9 °F - 47.8 °F 74% 30.06 in 10.0 mi ESE 3.5 mph - N/A   Mostly Cloudy
8:53 AM 57.2 °F - 48.9 °F 74% 30.05 in 10.0 mi ESE 4.6 mph - N/A   Mostly Cloudy
9:13 AM 59.2 °F - 50.5 °F 73% 30.05 in 10.0 mi SE 5.8 mph - N/A   Scattered Clouds
9:34 AM 61.5 °F - 51.6 °F 70% 30.05 in 10.0 mi SE 6.9 mph - N/A   Clear
9:53 AM 64.0 °F - 52.9 °F 67% 30.05 in 10.0 mi SE 9.2 mph - N/A   Clear
10:13 AM 64.4 °F - 52.7 °F 66% 30.05 in 10.0 mi SSE 4.6 mph - N/A   Clear
10:33 AM 65.7 °F - 53.2 °F 64% 30.04 in 10.0 mi SSE 5.8 mph - N/A   Mostly Cloudy
10:53 AM 69.8 °F - 54.0 °F 57% 30.04 in 10.0 mi SSE 6.9 mph - N/A   Scattered Clouds
11:14 AM 70.5 °F - 55.0 °F 58% 30.03 in 10.0 mi South 10.4 mph - N/A   Clear
11:33 AM 71.6 °F - 56.7 °F 59% 30.02 in 10.0 mi South 8.1 mph - N/A   Clear
11:53 AM 73.0 °F - 58.3 °F 60% 30.02 in 10.0 mi South 5.8 mph - N/A   Clear
12:14 PM 74.1 °F - 59.0 °F 59% 30.00 in 10.0 mi SSE 4.6 mph - N/A   Clear
12:33 PM 75.2 °F - 59.9 °F 59% 30.00 in 10.0 mi SSE 6.9 mph - N/A   Clear
12:53 PM 77.5 °F - 61.0 °F 57% 30.00 in 10.0 mi South 8.1 mph - N/A   Clear
1:14 PM 77.0 °F - 61.5 °F 59% 29.99 in 10.0 mi South 11.5 mph - N/A   Scattered Clouds
1:33 PM 79.2 °F - 61.5 °F 55% 29.98 in 10.0 mi SSW 10.4 mph - N/A   Scattered Clouds
1:53 PM 78.8 °F - 62.2 °F 57% 29.98 in 10.0 mi South 10.4 mph - N/A   Mostly Cloudy
2:14 PM 77.2 °F - 62.2 °F 60% 29.98 in 10.0 mi SW 8.1 mph 17.3 mph N/A   Mostly Cloudy
2:33 PM 80.6 °F 81.8 °F 62.8 °F 54% 29.97 in 10.0 mi SW 10.4 mph 16.1 mph N/A   Overcast
2:53 PM 79.2 °F - 62.6 °F 57% 29.96 in 10.0 mi South 8.1 mph - N/A   Mostly Cloudy
3:14 PM 79.7 °F - 62.2 °F 55% 29.96 in 10.0 mi WSW 9.2 mph - N/A   Mostly Cloudy
3:33 PM 78.8 °F - 63.3 °F 59% 29.95 in 10.0 mi South 10.4 mph - N/A   Mostly Cloudy
3:53 PM 79.3 °F - 63.0 °F 57% 29.95 in 10.0 mi SW 9.2 mph - N/A   Mostly Cloudy
4:14 PM 79.2 °F - 63.9 °F 59% 29.94 in 10.0 mi SSW 10.4 mph - N/A   Overcast
4:33 PM 79.3 °F - 63.7 °F 59% 29.93 in 10.0 mi South 9.2 mph - N/A   Scattered Clouds
4:53 PM 78.6 °F - 63.9 °F 60% 29.93 in 10.0 mi SSW 8.1 mph - N/A   Scattered Clouds
5:14 PM 77.9 °F - 63.9 °F 62% 29.92 in 10.0 mi SSW 8.1 mph - N/A   Scattered Clouds
5:33 PM 77.0 °F - 64.0 °F 64% 29.93 in 10.0 mi SSW 8.1 mph - N/A   Clear
5:53 PM 76.5 °F - 64.6 °F 67% 29.93 in 10.0 mi South 5.8 mph - N/A   Mostly Cloudy
6:13 PM 75.6 °F - 64.8 °F 69% 29.93 in 10.0 mi South 6.9 mph - N/A   Overcast
6:33 PM 74.7 °F - 65.3 °F 73% 29.94 in 10.0 mi South 8.1 mph - N/A   Mostly Cloudy
6:53 PM 73.8 °F - 65.3 °F 75% 29.95 in 10.0 mi South 6.9 mph - N/A   Mostly Cloudy
7:13 PM 73.4 °F - 65.3 °F 76% 29.94 in 10.0 mi South 5.8 mph - N/A   Mostly Cloudy
7:33 PM 72.5 °F - 64.8 °F 77% 29.95 in 10.0 mi SSW 8.1 mph - N/A   Scattered Clouds
7:53 PM 72.5 °F - 64.4 °F 76% 29.95 in 10.0 mi SSW 5.8 mph - N/A   Scattered Clouds
8:13 PM 71.8 °F - 64.4 °F 77% 29.95 in 10.0 mi SSW 4.6 mph - N/A   Scattered Clouds
8:33 PM 70.9 °F - 64.0 °F 79% 29.96 in 10.0 mi SSW 4.6 mph - N/A   Scattered Clouds
8:54 PM 69.3 °F - 63.9 °F 83% 29.96 in 10.0 mi SSW 4.6 mph - N/A   Scattered Clouds
9:13 PM 69.8 °F - 64.0 °F 82% 29.97 in 10.0 mi SW 5.8 mph - N/A   Mostly Cloudy
9:33 PM 70.3 °F - 63.7 °F 79% 29.97 in 10.0 mi SW 5.8 mph - N/A   Mostly Cloudy
9:54 PM 69.4 °F - 63.5 °F 81% 29.97 in 10.0 mi SW 5.8 mph - N/A   Mostly Cloudy
10:13 PM 68.0 °F - 63.1 °F 84% 29.97 in 10.0 mi SW 4.6 mph - N/A   Scattered Clouds
10:33 PM 67.6 °F - 63.5 °F 87% 29.98 in 10.0 mi SSW 4.6 mph - N/A   Overcast
10:54 PM 68.0 °F - 63.7 °F 86% 29.98 in 10.0 mi SSW 3.5 mph - N/A   Overcast
11:13 PM 68.0 °F - 63.5 °F 85% 29.98 in 10.0 mi Calm Calm - N/A   Overcast
11:33 PM 67.3 °F - 63.5 °F 88% 29.98 in 10.0 mi South 3.5 mph - N/A   Overcast